{"data":{"norad_id":58056,"epoch":"2026-05-24T21:05:30.772032Z","epoch_age_seconds":95837,"freshness":"FRESH","line1":"1 58056U 23158F   26144.87882838  .00003234  00000+0  12698-3 0  9992","line2":"2 58056  43.0014 316.6417 0001506 263.8406  96.2274 15.27583404145220","mean_motion":15.27583404,"eccentricity":0.0001506,"inclination_deg":43.0014,"raan_deg":316.6417,"arg_perigee_deg":263.8406,"mean_anomaly_deg":96.2274,"bstar":0.00012698,"rev_number":14522,"period_min":94.266538653755,"perigee_km":482.00561016697,"apogee_km":484.07219634903,"semimajor_km":6861.175903258,"source":"CELESTRAK","updated_at":"2026-05-25T13:38:18.499676Z"}}